DAL2720 KATL-KJAX

Flight info

Callsign DAL2720
Flight time N/A
Altitude 24000
Route VRSTY3 NOKIE DUCHY OHDEA2
Aircraft A21N/M-SDE2E3FGHIRWXY/LB1

Departure

Time 2026-05-06 00:51
Airport Hartsfield Jackson Atlanta International Airport (KATL)

Arrival

Time N/A
Airport Jacksonville International Airport (KJAX)
Time Latitude Longitude Altitude Speed Heading
2026-05-06 00:37 33.63833 -84.42640 1023 ft 0 kts 91°
2026-05-06 00:44 33.63833 -84.42651 1023 ft 2 kts 85°
2026-05-06 00:44 33.63832 -84.42669 1023 ft 2 kts 92°
2026-05-06 00:45 33.63833 -84.42687 1023 ft 2 kts 90°
2026-05-06 00:45 33.63834 -84.42706 1023 ft 2 kts 110°
2026-05-06 00:45 33.63841 -84.42721 1023 ft 2 kts 134°
2026-05-06 00:45 33.63852 -84.42731 1023 ft 0 kts 156°
2026-05-06 00:46 33.63858 -84.42734 1023 ft 1 kts 161°
2026-05-06 00:46 33.63860 -84.42735 1023 ft 0 kts 160°
2026-05-06 00:47 33.63860 -84.42734 1023 ft 0 kts 160°
2026-05-06 00:47 33.63859 -84.42734 1023 ft 0 kts 160°
2026-05-06 00:47 33.63857 -84.42734 1023 ft 0 kts 164°
2026-05-06 00:47 33.63834 -84.42734 1023 ft 6 kts 181°
2026-05-06 00:48 33.63770 -84.42735 1023 ft 11 kts 180°
2026-05-06 00:48 33.63680 -84.42722 1023 ft 15 kts 145°
2026-05-06 00:48 33.63655 -84.42587 1023 ft 18 kts 91°
2026-05-06 00:48 33.63655 -84.42415 1023 ft 22 kts 90°
2026-05-06 00:49 33.63648 -84.42209 1022 ft 26 kts 106°
2026-05-06 00:49 33.63580 -84.41987 1017 ft 30 kts 91°
2026-05-06 00:49 33.63580 -84.41718 1015 ft 33 kts 91°
2026-05-06 00:49 33.63581 -84.41427 1011 ft 36 kts 90°
2026-05-06 00:50 33.63579 -84.41115 1005 ft 38 kts 91°
2026-05-06 00:50 33.63579 -84.41012 1005 ft 32 kts 91°
2026-05-06 00:50 33.63471 -84.41089 1005 ft 53 kts 270°
2026-05-06 00:51 33.63468 -84.41870 1010 ft 131 kts 270°
2026-05-06 00:51 33.63482 -84.43171 1242 ft 168 kts 270°
2026-05-06 00:51 33.63549 -84.44572 1965 ft 173 kts 271°
2026-05-06 00:51 33.63670 -84.45995 2770 ft 174 kts 272°
2026-05-06 00:52 33.63742 -84.47394 3335 ft 171 kts 262°